Weather History for Dillon, MT

Change the Weather History Date:

Saturday, March 15, 2014

  Actual Average Record
Temperature  
Mean Temperature 38 °F 34 °F  
Max Temperature 49 °F 46 °F 63 °F (1992)
Min Temperature 26 °F 23 °F -4 °F (1944)
Degree Days  
Heating Degree Days 27    
Month to date heating degree days 450  
Since 1 July heating degree days 6230  
Cooling Degree Days 0    
Month to date cooling degree days 0  
Year to date cooling degree days 0  
Moisture  
Dew Point 18 °F    
Average Humidity 50    
Maximum Humidity 78    
Minimum Humidity 21    
Precipitation  
Precipitation 0.00 in 0.02 in 0.67 in (1963)
Month to date precipitation 0.23 0.21  
Year to date precipitation 0.46 0.73  
Snow  
Snow 0.00 in - - ()
Snow Depth 0.00 in    
Sea Level Pressure  
Sea Level Pressure 30.29 in    
Wind  
Wind Speed 13 mph (SW)    
Max Wind Speed 23 mph    
Max Gust Speed 29 mph    
Visibility 10 miles    
Events      
T = Trace of Precipitation, MM = Missing Value Source: NWS Daily Summary

Daily Weather History Graph

Daily Weather History Graph

Search for Another Location

Airport:

Trip Planner

Search our weather history database for the weather conditions in past years. The results will help you decide how hot, cold, wet, or windy it might be!

Date:

Astronomy

Mar. 15, 2014 Rise Set
Actual Time 7:42 AM MDT 7:36 PM MDT
Civil Twilight 7:13 AM MDT 8:05 PM MDT
Nautical Twilight 6:38 AM MDT 8:40 PM MDT
Astronomical Twilight 6:04 AM MDT 9:15 PM MDT
Moon 6:59 PM MDT (3/15) 6:58 AM MDT (3/15)
Length of Visible Light 12h 52m
Length of Day
11h 53m
Waxing Gibbous, 99% of the Moon is Illuminated
Mar 15
Waxing Gibbous
Mar 16
Full
Mar 23
Last Quarter
Mar 30
New
Apr 7
First Quarter

Hourly Weather History & Observations

Time (MDT) Temp. Windchill Dew Point Humidity Pressure Visibility Wind Dir Wind Speed Gust Speed Precip Events Conditions
12:53 AM 32.0 °F 24.8 °F 21.9 °F 66% 30.08 in 10.0 mi WSW 8.1 mph 19.6 mph N/A   Clear
1:53 AM 30.9 °F 19.8 °F 21.9 °F 69% 30.08 in 10.0 mi WSW 16.1 mph - N/A   Clear
2:53 AM 32.0 °F 20.5 °F 21.9 °F 66% 30.08 in 10.0 mi WSW 18.4 mph - N/A   Mostly Cloudy
3:53 AM 30.9 °F 20.7 °F 21.9 °F 69% 30.12 in 10.0 mi SW 13.8 mph - N/A   Mostly Cloudy
4:53 AM 30.9 °F 21.7 °F 23.0 °F 72% 30.15 in 10.0 mi SW 11.5 mph - N/A   Overcast
5:53 AM 30.9 °F 22.2 °F 24.1 °F 76% 30.19 in 10.0 mi SSW 10.4 mph - N/A   Overcast
6:53 AM 30.0 °F 23.2 °F 21.0 °F 69% 30.26 in 10.0 mi SSW 6.9 mph - N/A   Mostly Cloudy
7:53 AM 27.0 °F 17.3 °F 19.0 °F 72% 30.31 in 10.0 mi ESE 10.4 mph - N/A   Clear
8:53 AM 30.0 °F 22.4 °F 21.0 °F 69% 30.33 in 10.0 mi SSE 8.1 mph - N/A   Clear
9:53 AM 36.0 °F 28.5 °F 19.9 °F 52% 30.35 in 10.0 mi SSE 10.4 mph - N/A   Clear
10:53 AM 37.0 °F 30.4 °F 17.1 °F 44% 30.38 in 10.0 mi SSE 9.2 mph - N/A   Clear
11:53 AM 39.0 °F 31.4 °F 19.9 °F 46% 30.38 in 10.0 mi WSW 12.7 mph - N/A   Clear
12:53 PM 41.0 °F 34.3 °F 16.0 °F 36% 30.38 in 10.0 mi SW 11.5 mph - N/A   Clear
1:53 PM 44.1 °F 36.5 °F 15.1 °F 31% 30.35 in 10.0 mi WSW 17.3 mph 21.9 mph N/A   Clear
2:53 PM 46.0 °F 39.3 °F 14.0 °F 28% 30.32 in 10.0 mi SW 16.1 mph 23.0 mph N/A   Clear
3:53 PM 46.9 °F - 10.0 °F 22% 30.31 in 10.0 mi WSW 18.4 mph - N/A   Clear
4:53 PM 46.9 °F - 10.0 °F 22% 30.30 in 10.0 mi West 18.4 mph - N/A   Clear
5:53 PM 46.9 °F - 9.0 °F 21% 30.31 in 10.0 mi West 17.3 mph - N/A   Overcast
6:53 PM 45.0 °F 37.4 °F 15.1 °F 30% 30.33 in 10.0 mi West 18.4 mph - N/A   Overcast
7:53 PM 43.0 °F 35.7 °F 18.0 °F 37% 30.37 in 10.0 mi WSW 15.0 mph - N/A   Mostly Cloudy
8:53 PM 39.9 °F 32.1 °F 19.9 °F 45% 30.37 in 10.0 mi WSW 13.8 mph - N/A   Overcast
9:53 PM 37.9 °F 30.0 °F 19.9 °F 48% 30.37 in 10.0 mi South 12.7 mph - N/A   Clear
10:53 PM 37.0 °F 30.4 °F 19.0 °F 48% 30.37 in 10.0 mi South 9.2 mph - N/A   Clear
11:53 PM 35.1 °F 28.6 °F 19.0 °F 52% 30.36 in 10.0 mi South 8.1 mph - N/A   Clear